TheGetRank SiteMap Page 6399
Home 6349 6350 6351 6352 6353 6354 6355 6356 6357 6358 6359 6360 6361 6362 6363 6364 6365 6366 6367 6368 6369 6370 6371 6372 6373 6374 6375 6376 6377 6378 6379 6380 6381 6382 6383 6384 6385 6386 6387 6388 6389 6390 6391 6392 6393 6394 6395 6396 6397 6398 6399 6400 6401 6402 6403 6404 6405 6406 6407 6408 6409 6410 6411 6412 6413 6414 6415 6416 6417 6418 6419 6420 6421 6422 6423 6424 6425 6426 6427 6428 6429 6430 6431 6432 6433 6434 6435 6436 6437 6438 6439 6440 6441 6442 6443 6444 6445 6446 6447 6448 6449
S.NO. Website Pagerank Alexa Rank Last Updated
6398000 lorenzo.globalfreeforum.com 0 256594 2012-01-15 21:33:50
6398001 sydneytrafficcontrol.com.au 0 No Rank 2012-01-15 21:33:50
6398002 organogoldhealthycoffee.net 0 No Rank 2012-01-15 21:33:53
6398003 thequintessentialblog.co.uk 0 No Rank 2012-01-15 21:33:54
6398004 lilyx.magnetcompscircms.com 0 No Rank 2012-01-15 21:33:54
6398005 farchsr.globalfreeforum.com 0 256594 2012-01-15 21:33:54
6398006 ubytovanie-slovensky-raj.sk 0 No Rank 2012-01-15 21:33:57
6398007 poohsfamilydaycare.ms11.net 0 373945 2012-01-15 21:33:57
6398008 housesforsalegisborne.co.nz 0 No Rank 2012-01-15 21:33:57
6398009 shoppingcostadourada.com.br 0 3795152 2012-01-15 21:34:00
6398010 holisticportlandmassage.com 0 10895675 2012-01-15 21:34:01
6398011 imore.com 0 85915 2012-01-15 21:34:02
6398012 seabrightsantacruzhomes.com 0 No Rank 2012-01-15 21:34:03
6398013 guzzi-mz-training.info 0 No Rank 2012-01-15 21:34:04
6398014 docontractors.com 0 23646298 2012-01-15 21:34:07
6398015 playpokeronlineforfree.info 0 No Rank 2012-01-15 21:34:08
6398016 representantesaduaneros.com 0 No Rank 2012-01-15 21:34:08
6398017 pirates.globalfreeforum.com 0 256594 2012-01-15 21:34:09
6398018 onlineshoppingcentre.net.au 0 No Rank 2012-01-15 21:34:14
6398019 support.globalfreeforum.com 0 256594 2012-01-15 21:34:15
6398020 aldridge.genealogy.ms11.net 0 373945 2012-01-15 21:34:18
6398021 lesandsscreensandblinds.com 0 No Rank 2012-01-15 21:34:19
6398022 uppermichiganwaterfalls.com 0 No Rank 2012-01-15 21:34:21
6398023 singlewindowconsultancy.com 0 No Rank 2012-01-15 21:34:24
6398024 theprincessofmontpensier.tk 0 No Rank 2012-01-15 21:34:25
6398025 schubertcontemporary.com.au 0 17948799 2012-01-15 21:34:27
6398026 cherrywoodlodgemunising.com 0 No Rank 2012-01-15 21:34:29
6398027 holidaywonga.com 0 No Rank 2012-01-15 21:34:32
6398028 hairremovalproductguide.com 0 No Rank 2012-01-15 21:34:33
6398029 u.fulfillment.inube.com 0 11287 2012-01-15 21:34:36
6398030 sofiapropertymanagement.com 0 No Rank 2012-01-15 21:34:37
6398031 manfred-christa-hoffmann.de 0 8267898 2012-01-15 21:34:39
6398032 solarportodegalinhas.com.br 0 2405557 2012-01-15 21:34:42
6398033 tango.produccionesmb.com.ar 0 2089785 2012-01-15 21:34:42
6398034 frompradatonada-download.tk 0 No Rank 2012-01-15 21:34:42
6398035 tani-sylwester.sosnowiec.pl 0 No Rank 2012-01-15 21:34:45
6398036 thomasmhintoncollection.com 0 No Rank 2012-01-15 21:34:46
6398037 andeverythingisgoingfine.tk 0 No Rank 2012-01-15 21:34:46
6398038 boonevillechurchofchrist.ms 0 No Rank 2012-01-15 21:34:49
6398039 dinebydesigncateringinc.com 0 15468544 2012-01-15 21:34:51
6398040 sarasotalaserhairremoval.com 0 No Rank 2012-01-15 21:34:51
6398041 generalmedicalequipments.com 0 No Rank 2012-01-15 21:34:52
6398042 snowflowerandthesecretfan.tk 0 No Rank 2012-01-15 21:34:55
6398043 hostelportodegalinhas.com.br 0 6071957 2012-01-15 21:34:56
6398044 glenncurtissmemorialpark.com 0 No Rank 2012-01-15 21:34:59
6398045 civetcoffeeinternational.com 0 No Rank 2012-01-15 21:35:00
6398046 way-hostel.hostelsmadrid.net 0 No Rank 2012-01-15 21:35:02
6398047 portmacquarieworkwear.com.au 0 No Rank 2012-01-15 21:35:02
6398048 legnowood.globalfreeforum.it 0 5523430 2012-01-15 21:35:07
6398049 customizedcareforseniors.com 0 No Rank 2012-01-15 21:35:10
6398050 mihirk.magnetcompscircms.com 0 No Rank 2012-01-15 21:35:16
6398051 jampen-gemusebaumaschinen.ch 0 9036042 2012-01-15 21:35:17
6398052 globalimmigrationcenters.com 0 No Rank 2012-01-15 21:35:18
6398053 scarabeo.globalfreeforum.com 0 256594 2012-01-15 21:35:21
6398054 healthwellnesspsychology.com 0 No Rank 2012-01-15 21:35:23
6398055 montessorimagicpreschool.com 0 No Rank 2012-01-15 21:35:26
6398056 wilsonacupuncturevictoria.ca 0 No Rank 2012-01-15 21:35:28
6398057 thebigadventure.svetsoft.com 0 4958072 2012-01-15 21:35:29
6398058 expert-witness-training.info 0 No Rank 2012-01-15 21:35:31
6398059 uppermichigandeerhunting.com 0 22250843 2012-01-15 21:35:33
6398060 uniformschneiderei-zuther.de 0 No Rank 2012-01-15 21:35:34
6398061 newsite.judograndsaconnex.ch 0 No Rank 2012-01-15 21:35:36
6398062 elegantlysimplesolutions.com 0 No Rank 2012-01-15 21:35:42
6398063 australasian-arachnology.org 0 12039691 2012-01-15 21:35:45
6398064 compassionatecarehospice.org 0 No Rank 2012-01-15 21:35:46
6398065 specialtysportsandsupply.com 0 5502370 2012-01-15 21:35:50
6398066 primarydisputeresolution.com 0 No Rank 2012-01-15 21:35:50
6398067 uppermichigancustomhomes.com 0 No Rank 2012-01-15 21:35:52
6398068 ingles.desde-el-atico.com.ar 0 No Rank 2012-01-15 21:35:54
6398069 uppermichigangaragedoors.com 0 No Rank 2012-01-15 21:35:56
6398070 yomatias.globalfreeforum.com 0 256594 2012-01-15 21:35:56
6398071 ultratunemarrickville.com.au 0 No Rank 2012-01-15 21:35:57
6398072 loghomestimberstructures.com 0 No Rank 2012-01-15 21:36:00
6398073 champlainfishingcharters.com 0 15304529 2012-01-15 21:36:01
6398074 web6174.server76.greatnet.de 0 43995 2012-01-15 21:36:04
6398075 mississippi.totalpayroll.net 0 10936718 2012-01-15 21:36:08
6398076 wholesale.tradewindsshop.com 0 6321276 2012-01-15 21:36:14
6398077 web6163.server76.greatnet.de 0 43995 2012-01-15 21:36:15
6398078 rapidfitnesstrainingclub.com 0 No Rank 2012-01-15 21:36:15
6398079 vss302.webhosting-secure.com 0 4089916 2012-01-15 21:36:19
6398080 actaa.net 0 No Rank 2012-01-15 21:36:21
6398081 imperivm.globalfreeforum.com 0 256594 2012-01-15 21:36:21
6398082 dredisonscomputermedicine.com 0 22702941 2012-01-15 21:36:22
6398083 pennsylvania-workers-comp.com 0 No Rank 2012-01-15 21:36:30
6398084 escolainfantilpinoquio.com.br 0 No Rank 2012-01-15 21:36:32
6398085 stmartinacademyoffinearts.com 0 No Rank 2012-01-15 21:36:32
6398086 group12.magnetcompscircms.com 0 No Rank 2012-01-15 21:36:34
6398087 alquilerdetrajesyvestidos.net 0 No Rank 2012-01-15 21:36:35
6398088 veteransrealestate-online.com 0 14037070 2012-01-15 21:36:39
6398089 life-insurance-companies.info 0 14356269 2012-01-15 21:36:40
6398090 westerncoloradoproperties.net 0 No Rank 2012-01-15 21:36:40
6398091 apartamentosenbrickell-fl.com 0 No Rank 2012-01-15 21:36:43
6398092 hwlca.bystanderindustries.com 0 No Rank 2012-01-15 21:36:45
6398093 solda2000.globalfreeforum.com 0 256594 2012-01-15 21:36:46
6398094 monkeynaroundmusicandmore.com 0 18269017 2012-01-15 21:36:46
6398095 jackieandjoeywedding10910.com 0 No Rank 2012-01-15 21:36:47
6398096 clinicalhypnotherapist.com.au 0 No Rank 2012-01-15 21:36:50
6398097 cubaforum.globalfreeforum.com 0 256594 2012-01-15 21:36:55
6398098 fmrepropertyandcasualty.co.zw 0 No Rank 2012-01-15 21:36:56
6398099 pattinaggiocorsa.forumcity.it 0 2898878 2012-01-15 21:36:58
6398100 bridalgownscustomcolorado.com 0 No Rank 2012-01-15 21:36:59
6398101 abcfightingcancertogether.com 0 No Rank 2012-01-15 21:37:02
6398102 stonerestorationofamerica.com 0 11057930 2012-01-15 21:37:02
6398103 infectieziektenbestrijding.nl 0 No Rank 2012-01-15 21:37:04
6398104 laurelwoodvilla.com 0 No Rank 2012-01-15 21:37:12
6398105 gospelsongwritersworkshop.com 0 No Rank 2012-01-15 21:37:39
6398106 cuartetoscherzo.es 0 No Rank 2012-01-15 21:37:45
6398107 luggagesetsdirect.com 0 No Rank 2012-01-15 21:38:22
6398108 100dayloans-review.info 0 No Rank 2012-01-15 21:39:02
6398109 herbbud.com 0 700640 2012-01-15 21:39:43
6398110 bigdreamlandproperty.com 0 No Rank 2012-01-15 21:39:46
6398111 tlgroupconsultants.com 0 No Rank 2012-01-15 21:40:51
6398112 tomseghi.com 0 No Rank 2012-01-15 21:40:58
6398113 adultuk.net 0 No Rank 2012-01-15 21:41:00
6398114 tombrettphotography.com 0 No Rank 2012-01-15 21:41:05
6398115 escorts264171.sexdateafspraak.info 0 No Rank 2012-01-15 21:41:19
6398116 topcoatsealing.com 0 No Rank 2012-01-15 21:41:19
6398117 towerview.plprop.com 0 No Rank 2012-01-15 21:41:40
6398118 film.juyou8.com 0 15140978 2012-01-15 21:41:46
6398119 tracybrandt.com 0 No Rank 2012-01-15 21:41:48
6398120 triatlonmexico.com 0 No Rank 2012-01-15 21:41:55
6398121 tracybhair.com 0 No Rank 2012-01-15 21:42:09
6398122 vanphongphamvietnam.net 0 No Rank 2012-01-15 21:42:09
6398123 litschgi.de 0 No Rank 2012-01-15 21:42:14
6398124 mm.juyou8.com 0 15140978 2012-01-15 21:42:46
6398125 obatkamasutra.com 0 No Rank 2012-01-15 21:43:21
6398126 escortdames320.sexdateafspraak.info 0 No Rank 2012-01-15 21:43:41
6398127 tennisclub.pompaglet.blog.com 0 2676977 2012-01-15 21:43:43
6398128 kasperskyviet.com.vn 0 No Rank 2012-01-15 21:43:44
6398129 perdanaweb.com 0 No Rank 2012-01-15 21:43:45
6398130 news.cougarwomen.us.sg 0 12197542 2012-01-15 21:44:06
6398131 renting.dp.ua 0 7535657 2012-01-15 21:44:09
6398132 africanhoodiagordonii.org 0 No Rank 2012-01-15 21:44:30
6398133 powersafelist.com 0 No Rank 2012-01-15 21:44:41
6398134 troop1488.org 0 No Rank 2012-01-15 21:45:42
6398135 rechtsanwalt-nickel.de 0 No Rank 2012-01-15 21:45:53
6398136 twineagles.org 0 5220935 2012-01-15 21:45:55
6398137 underwriterslcs.com 0 No Rank 2012-01-15 21:46:01
6398138 unyaace.org 0 No Rank 2012-01-15 21:46:16
6398139 unitedvalleyinterfaith.org 0 No Rank 2012-01-15 21:46:23
6398140 ur-post.com 0 No Rank 2012-01-15 21:46:29
6398141 kino-monster.ru 0 5210852 2012-01-15 21:46:35
6398142 upward.fbfirst.com 0 4122467 2012-01-15 21:46:39
6398143 thebestdietsupplements.com 0 5610568 2012-01-15 21:46:42
6398144 california.totalpayroll.net 0 10936718 2012-01-15 21:46:42
6398145 jacksonvillefleamarkets.com 0 7640803 2012-01-15 21:46:46
6398146 kampfsportcenter-rheintal.ch 0 No Rank 2012-01-15 21:46:46
6398147 whirleypoppopcornpopper.org 0 No Rank 2012-01-15 21:46:47
6398148 practicadesarrollocatie.org 0 No Rank 2012-01-15 21:46:47
6398149 lapiazza.globalfreeforum.com 0 256594 2012-01-15 21:46:48
6398150 creativetravelincentives.com 0 No Rank 2012-01-15 21:46:49
6398151 blakelyearlycountychamber.com 0 No Rank 2012-01-15 21:46:51
6398152 familyguyitsatrap-download.tk 0 No Rank 2012-01-15 21:46:52
6398153 wildbirds.globalfreeforum.com 0 256594 2012-01-15 21:46:53
6398154 jenniferholmesphotography.com 0 No Rank 2012-01-15 21:46:55
6398155 pennsylvania.totalpayroll.net 0 10936718 2012-01-15 21:46:57
6398156 alquilerdetrajesyvestidos.com 0 No Rank 2012-01-15 21:46:58
6398157 languageadventureprograms.com 0 No Rank 2012-01-15 21:47:00
6398158 munisingsnowmobilerentals.com 0 No Rank 2012-01-15 21:47:01
6398159 kingofpaperchasin-download.tk 0 No Rank 2012-01-15 21:47:04
6398160 kombetkampret30.blogspot.com 0 No Rank 2012-01-15 21:47:05
6398161 silverrose.globalfreeforum.com 0 256594 2012-01-15 21:47:07
6398162 powerinvertersaustralia.com.au 0 5476417 2012-01-15 21:47:08
6398163 magicthecathering.forumcity.it 0 2898878 2012-01-15 21:47:11
6398164 northcarolina.totalpayroll.net 0 10936718 2012-01-15 21:47:15
6398165 greenmania.globalfreeforum.com 0 256594 2012-01-15 21:47:15
6398166 allgoodthings-moviedownload.tk 0 No Rank 2012-01-15 21:47:16
6398167 cornerstoneyouthministries.org 0 No Rank 2012-01-15 21:47:17
6398168 massachusetts.totalpayroll.net 0 10936718 2012-01-15 21:47:19
6398169 bulldogconstructionflorida.com 0 No Rank 2012-01-15 21:47:20
6398170 verhaltenstherapie-muenchen.de 0 18927760 2012-01-15 21:47:20
6398171 congregationsinai-minneola.org 0 No Rank 2012-01-15 21:47:21
6398172 legendskaos.globalfreeforum.it 0 5523430 2012-01-15 21:47:23
6398173 arizonaonlinetrafficschool.net 0 No Rank 2012-01-15 21:47:24
6398174 antoinettes-fredericksburg.com 0 No Rank 2012-01-15 21:47:25
6398175 southcarolina.totalpayroll.net 0 10936718 2012-01-15 21:47:27
6398176 ronpoker.magnetcompscircms.com 0 No Rank 2012-01-15 21:47:27
6398177 4192thecrowningofthehitking.tk 0 No Rank 2012-01-15 21:47:29
6398178 aliceandkev.wordpress.com 0 1721688 2012-01-15 21:47:30
6398179 alterationsboulderlongmont.com 0 No Rank 2012-01-15 21:47:31
6398180 mich2.com 0 No Rank 2012-01-15 21:47:32
6398181 asigcforum.globalfreeforum.com 0 256594 2012-01-15 21:47:34
6398182 cafelatino.globalfreeforum.com 0 256594 2012-01-15 21:47:36
6398183 sunrisecaterers-decorators.com 0 No Rank 2012-01-15 21:47:37
6398184 alpharulez.globalfreeforum.com 0 256594 2012-01-15 21:47:37
6398185 jogosinfantiseducativos.com.br 0 4676082 2012-01-15 21:47:38
6398186 cooperandthecastlehillsgang.tk 0 No Rank 2012-01-15 21:47:40
6398187 miatamania.globalfreeforum.com 0 256594 2012-01-15 21:47:43
6398188 realestatepropertyupdate.com.au 0 6595841 2012-01-15 21:47:47
6398189 backtonaturefuneralservices.com 0 No Rank 2012-01-15 21:47:48
6398190 hackerforum.globalfreeforum.com 0 256594 2012-01-15 21:47:49
6398191 theimperialistsarestillalive.tk 0 No Rank 2012-01-15 21:47:51
6398192 motobradipi.globalfreeforum.com 0 256594 2012-01-15 21:47:51
6398193 trackattack.globalfreeforum.com 0 256594 2012-01-15 21:47:54
6398194 projecthope.globalfreeforum.com 0 256594 2012-01-15 21:47:55
6398195 fantamalati.globalfreeforum.com 0 256594 2012-01-15 21:47:57
6398196 pleasurepointsantacruzhomes.com 0 No Rank 2012-01-15 21:47:58
6398197 general-liability-insurance.net 0 No Rank 2012-01-15 21:48:00
6398198 pousadarecantodapreguica.com.br 0 No Rank 2012-01-15 21:48:02
6398199 svchost-exe-keeps-crashing.info 0 No Rank 2012-01-15 21:48:05
6398200 blog.festainfantilrecife.com.br 0 8322081 2012-01-15 21:48:05
6398201 aikencountyhistoricalmuseum.org 0 No Rank 2012-01-15 21:48:08
6398202 michiganlakeshorerealestate.net 0 No Rank 2012-01-15 21:48:14
6398203 hotel-management-services.co.uk 0 No Rank 2012-01-15 21:48:15
6398204 1stchoicesalesandlettings.co.uk 0 20259412 2012-01-15 21:48:16
6398205 laislabonita.globalfreeforum.com 0 256594 2012-01-15 21:48:18
6398206 itineraridifusiodelpatrimoni.com 0 No Rank 2012-01-15 21:48:18
6398207 printer.m050c162.k032jp0692.info 0 6053107 2012-01-15 21:48:20
6398208 nonsoloradio.globalfreeforum.com 0 256594 2012-01-15 21:48:22
6398209 realestatereportaustralia.com.au 0 20937929 2012-01-15 21:48:24
6398210 vatteneforum.globalfreeforum.com 0 256594 2012-01-15 21:48:25
6398211 flamephoenix.globalfreeforum.com 0 256594 2012-01-15 21:48:28
6398212 captainamericathefirstavenger.tk 0 No Rank 2012-01-15 21:48:30
6398213 renaissancechristian.edumoot.com 0 462903 2012-01-15 21:48:30
6398214 artsandcommercecollegemandvi.com 0 No Rank 2012-01-15 21:48:32
6398215 dynamicrelationshipstraining.com 0 No Rank 2012-01-15 21:48:33
6398216 blog.nicolegibsonphotography.com 0 No Rank 2012-01-15 21:48:33
6398217 noisecancellingheadphonesite.com 0 No Rank 2012-01-15 21:48:36
6398218 thetravelerschannelworldwide.com 0 No Rank 2012-01-15 21:48:36
6398219 imobiliariaportodegalinhas.com.br 0 No Rank 2012-01-15 21:48:39
6398220 fiveminaretsinnewyork-download.tk 0 No Rank 2012-01-15 21:48:42
6398221 peruvian-goldplated-handcraft.com 0 No Rank 2012-01-15 21:48:43
6398222 mondodiathena.globalfreeforum.com 0 256594 2012-01-15 21:48:43
6398223 presentatrici.globalfreeforum.com 0 256594 2012-01-15 21:48:45
6398224 portonuovonew.globalfreeforum.com 0 256594 2012-01-15 21:48:47
6398225 racingdinasty.globalfreeforum.com 0 256594 2012-01-15 21:48:51
6398226 basketfonzaso.globalfreeforum.com 0 256594 2012-01-15 21:48:52
6398227 novohotelbwportodegalinhas.com.br 0 No Rank 2012-01-15 21:48:55
6398228 burlingtonvtrealestateforsale.com 0 No Rank 2012-01-15 21:48:56
6398229 extend-unemployment-benefits.info 0 No Rank 2012-01-15 21:48:58
6398230 gasandwoodfireplacesandstoves.com 0 No Rank 2012-01-15 21:49:00
6398231 calciocampano.globalfreeforum.com 0 256594 2012-01-15 21:49:02
6398232 fantacampetto.globalfreeforum.com 0 256594 2012-01-15 21:49:02
6398233 weight-loss-diet-supplements.info 0 No Rank 2012-01-15 21:49:03
6398234 judymoodyandthenotbummersummer.tk 0 No Rank 2012-01-15 21:49:04
6398235 csu-hoehenkirchen-siegertsbrunn.de 0 16688483 2012-01-15 21:49:06
6398236 killercool.bystanderindustries.com 0 No Rank 2012-01-15 21:49:24
6398237 morbodiaddison.globalfreeforum.com 0 256594 2012-01-15 21:49:24
6398238 group-health-insurance-policy.info 0 No Rank 2012-01-15 21:49:28
6398239 lftunderground.globalfreeforum.com 0 256594 2012-01-15 21:49:30
6398240 mercatinonline.globalfreeforum.com 0 256594 2012-01-15 21:49:33
6398241 legionariromani.globalfreeforum.it 0 5523430 2012-01-15 21:49:35
6398242 forumsambarato.globalfreeforum.com 0 256594 2012-01-15 21:49:36
6398243 warrockcheater.globalfreeforum.com 0 256594 2012-01-15 21:49:38
6398244 veraliberaidea.globalfreeforum.com 0 256594 2012-01-15 21:49:40
6398245 wwwlingonescom.globalfreeforum.com 0 256594 2012-01-15 21:49:43
6398246 teamelbiracing.globalfreeforum.com 0 256594 2012-01-15 21:49:45
6398247 acidoascorbico.globalfreeforum.com 0 256594 2012-01-15 21:49:47
6398248 triadevincente.globalfreeforum.com 0 256594 2012-01-15 21:49:49
6398249 wordpress.successfulhairsalons.com 0 No Rank 2012-01-15 21:49:49
6398250 bestcreativedesigns.com 0 2811755 2012-01-15 21:49:53
6398251 passionfornails.globalfreeforum.com 0 256594 2012-01-15 21:49:53
6398252 blueboyhub.cbox.ws 0 5169 2012-01-15 21:49:54
6398253 biologiafirenze.globalfreeforum.com 0 256594 2012-01-15 21:49:57
6398254 f1projectitalia.globalfreeforum.com 0 256594 2012-01-15 21:49:57
6398255 psychologyschool.onlineschools.name 0 4001231 2012-01-15 21:50:00
6398256 wwwferroearteit.globalfreeforum.com 0 256594 2012-01-15 21:50:02
6398257 losbarcodianzio.globalfreeforum.com 0 256594 2012-01-15 21:50:02
6398258 districtofcolumbia.totalpayroll.net 0 10936718 2012-01-15 21:50:04
6398259 david-esteban.magnetcompscircms.com 0 No Rank 2012-01-15 21:50:07
6398260 tricotillomania.globalfreeforum.com 0 256594 2012-01-15 21:50:07
6398261 quartieremorena.globalfreeforum.com 0 256594 2012-01-15 21:50:16
6398262 caplazesalamina.globalfreeforum.com 0 256594 2012-01-15 21:50:17
6398263 pentagonoffroad.globalfreeforum.com 0 256594 2012-01-15 21:50:17
6398264 dumbcomics.expressionsinfinitum.com 0 10685218 2012-01-15 21:50:21
6398265 federal-unemployment-extension.info 0 21018728 2012-01-15 21:50:24
6398266 los-angeles-criminal-attorneys.info 0 No Rank 2012-01-15 21:50:27
6398267 fantacalcioceieb.globalfreeforum.com 0 256594 2012-01-15 21:50:28
6398268 blackmetalonline.globalfreeforum.com 0 256594 2012-01-15 21:50:30
6398269 search-engine-optimization-india.com 0 9127072 2012-01-15 21:50:33
6398270 scottsdalepersonalfitnesstrainer.com 0 No Rank 2012-01-15 21:50:33
6398271 newwarrockcheats.globalfreeforum.com 0 256594 2012-01-15 21:50:34
6398272 babystrollersdeal.com 0 2513553 2012-01-15 21:50:34
6398273 gay-pizarro-hostal.hostelsmadrid.net 0 No Rank 2012-01-15 21:50:35
6398274 macchineagricole.globalfreeforum.com 0 256594 2012-01-15 21:50:38
6398275 pescareincalabria.globalfreeforum.com 0 256594 2012-01-15 21:50:41
6398276 women.forex24total.com 0 No Rank 2012-01-15 21:50:42
6398277 gliamicidiernesta.globalfreeforum.com 0 256594 2012-01-15 21:50:43
6398278 wwwbadmintonforum.globalfreeforum.com 0 256594 2012-01-15 21:50:44
6398279 lottoditreroberto.globalfreeforum.com 0 256594 2012-01-15 21:50:46
6398280 economiadomestica.globalfreeforum.com 0 256594 2012-01-15 21:50:48
6398281 fantacalciotheate.globalfreeforum.com 0 256594 2012-01-15 21:50:49
6398282 dzdeao.web-202.com 0 11340509 2012-01-15 21:50:49
6398283 learnneurolinguisticprogramming.com.au 0 No Rank 2012-01-15 21:50:51
6398284 moonlightfestival.globalfreeforum.com 0 256594 2012-01-15 21:50:52
6398285 guyandmadelineonaparkbench-download.tk 0 No Rank 2012-01-15 21:50:53
6398286 fantacalciostiglia.globalfreeforum.com 0 256594 2012-01-15 21:50:54
6398287 lavoratoripercoopfi.globalfreeforum.com 0 256594 2012-01-15 21:50:56
6398288 historycoursesonline.onlineschools.name 0 4001231 2012-01-15 21:50:58
6398289 physicscoursesonline.onlineschools.name 0 4001231 2012-01-15 21:50:58
6398290 biologycoursesonline.onlineschools.name 0 4001231 2012-01-15 21:50:59
6398291 fantacalciointernos.globalfreeforum.com 0 256594 2012-01-15 21:51:01
6398292 englishcoursesonline.onlineschools.name 0 4001231 2012-01-15 21:51:03
6398293 ipman2legendofthegrandmaster-download.tk 0 No Rank 2012-01-15 21:51:04
6398294 onlinelanguagecourses.onlineschools.name 0 4001231 2012-01-15 21:51:07
6398295 onlineeconomicscourses.onlineschools.name 0 4001231 2012-01-15 21:51:07
6398296 geographycoursesonline.onlineschools.name 0 4001231 2012-01-15 21:51:14
6398297 chemistrycoursesonline.onlineschools.name 0 4001231 2012-01-15 21:51:15
6398298 accountingcoursesonline.onlineschools.name 0 4001231 2012-01-15 21:51:19
6398299 hostel-one-puerta-del-sol.hostelsmadrid.net 0 No Rank 2012-01-15 21:51:21
6398300 vespaclubfloridialentini.globalfreeforum.com 0 256594 2012-01-15 21:51:25
6398301 la-posada-de-huertas-hostel.hostelsmadrid.net 0 No Rank 2012-01-15 21:51:26
6398302 find-an-agent-become-famous.robtencerpr.com 0 6159006 2012-01-15 21:51:41
6398303 ce.am 0 5659444 2012-01-15 21:51:42
6398304 bki.no 0 6671516 2012-01-15 21:51:47
6398305 fvs.jp 0 No Rank 2012-01-15 21:51:49
6398306 inm.ma 0 No Rank 2012-01-15 21:51:50
6398307 cgl.ch 0 No Rank 2012-01-15 21:51:53
6398308 dhg.ch 0 No Rank 2012-01-15 21:51:57
6398309 dkb.ch 0 No Rank 2012-01-15 21:51:57
6398310 chad-rogers-malibu-real-estate.robtencerpr.com 0 6159006 2012-01-15 21:51:59
6398311 alvisbodyandframe.com 0 No Rank 2012-01-15 21:51:59
6398312 ste.ma 0 No Rank 2012-01-15 21:52:04
6398313 women.smartphone-highlights.com 0 11114688 2012-01-15 21:52:06
6398314 epl.ch 0 No Rank 2012-01-15 21:52:06
6398315 pacific.palisades.chiropractic.housecalls.robtencerpr.com 0 6159006 2012-01-15 21:52:06
6398316 u-l.ch 0 10552236 2012-01-15 21:52:07
6398317 uta.la 0 6664315 2012-01-15 21:52:08
6398318 dmg.ch 0 17158491 2012-01-15 21:52:14
6398319 managedforex-trading.com 0 No Rank 2012-01-15 21:52:15
6398320 qmb.ie 0 No Rank 2012-01-15 21:52:19
6398321 aee.ie 0 No Rank 2012-01-15 21:52:20
6398322 qiq.ws 0 15297 2012-01-15 21:52:21
6398323 dte.ie 0 4368576 2012-01-15 21:52:21
6398324 cnm.ie 0 No Rank 2012-01-15 21:52:23
6398325 dima.us 0 No Rank 2012-01-15 21:52:25
6398326 nowa.ch 0 No Rank 2012-01-15 21:52:28
6398327 nakj.jp 0 No Rank 2012-01-15 21:52:30
6398328 a-dp.ru 0 No Rank 2012-01-15 21:52:33
6398329 btlt.ru 0 1920116 2012-01-15 21:52:35
6398330 mvda.de 0 5761662 2012-01-15 21:52:36
6398331 efta.ch 0 No Rank 2012-01-15 21:52:38
6398332 isma.ma 0 25825229 2012-01-15 21:52:40
6398333 sgac.co 0 No Rank 2012-01-15 21:52:41
6398334 dragonfireworks.pompaglet.blog.com 0 2676977 2012-01-15 21:52:43
6398335 ssun.in 0 4071328 2012-01-15 21:52:43
6398336 ahefv.com 0 5216886 2012-01-15 21:52:43
6398337 sd-f.ru 0 No Rank 2012-01-15 21:52:48
6398338 gsba.ie 0 No Rank 2012-01-15 21:52:50
6398339 f-ls.ru 0 11109464 2012-01-15 21:52:53
6398340 omos.ie 0 13241471 2012-01-15 21:52:54
6398341 all1.jp 0 No Rank 2012-01-15 21:52:55
6398342 kw66.ru 0 No Rank 2012-01-15 21:52:55
6398343 tuxu.ru 0 No Rank 2012-01-15 21:52:56
6398344 ydw.org 0 No Rank 2012-01-15 21:52:59
6398345 uno1.de 0 19818585 2012-01-15 21:53:01
6398346 t3t.biz 0 No Rank 2012-01-15 21:53:02
6398347 ziwc.ch 0 No Rank 2012-01-15 21:53:02
6398348 stfh.ch 0 20083306 2012-01-15 21:53:04
6398349 mrvc.tnhomestead.tripod.com 0 729 2012-01-15 21:53:05
6398350 3ink.pl 0 No Rank 2012-01-15 21:53:06
6398351 omit.ch 0 3464143 2012-01-15 21:53:06
6398352 greenlandicecapchallenge.com 0 No Rank 2012-01-15 21:53:07
6398353 baito.pompaglet.blog.com 0 2676977 2012-01-15 21:53:11
6398354 wankx.com 0 No Rank 2012-01-15 21:53:14
6398355 aigr.ma 0 No Rank 2012-01-15 21:53:17
6398356 alphasinta.ru 0 8406145 2012-01-15 21:53:17
6398357 netm.ch 0 No Rank 2012-01-15 21:53:21
6398358 lena.us 0 No Rank 2012-01-15 21:53:23
6398359 ski1.es 0 No Rank 2012-01-15 21:53:25
6398360 85x.biz 0 5620454 2012-01-15 21:53:26
6398361 z31.org 0 No Rank 2012-01-15 21:53:28
6398362 ador.su 0 12995455 2012-01-15 21:53:29
6398363 cmdc.ca 0 4236917 2012-01-15 21:53:32
6398364 tata.ma 0 No Rank 2012-01-15 21:53:36
6398365 wmsi.ch 0 No Rank 2012-01-15 21:53:37
6398366 cuir.ma 0 5814322 2012-01-15 21:53:37
6398367 zvi.org 0 17348168 2012-01-15 21:53:41
6398368 r4c.net 0 No Rank 2012-01-15 21:53:43
6398369 milkandhoneychurch.comli.com 0 24480 2012-01-15 21:53:44
6398370 fldp.org 0 26068817 2012-01-15 21:53:44
6398371 progm.de 0 No Rank 2012-01-15 21:53:46
6398372 tktsa.ru 0 No Rank 2012-01-15 21:53:48
6398373 ianstannard.com 0 No Rank 2012-01-15 21:53:49
6398374 buyan.sg 0 5407806 2012-01-15 21:53:50
6398375 buur.org 0 No Rank 2012-01-15 21:53:51
6398376 spk-t.ru 0 6975176 2012-01-15 21:53:53
6398377 pekys.de 0 No Rank 2012-01-15 21:53:54
6398378 sodec.ma 0 15907492 2012-01-15 21:53:54
6398379 pish.com 0 No Rank 2012-01-15 21:53:57
6398380 alean.ch 0 No Rank 2012-01-15 21:53:59
6398381 cvcn.net 0 No Rank 2012-01-15 21:54:01
6398382 rhpt.net 0 No Rank 2012-01-15 21:54:02
6398383 cwsn.org 0 No Rank 2012-01-15 21:54:03
6398384 law.trade188.com 0 No Rank 2012-01-15 21:54:10
6398385 ipics.ie 0 17459260 2012-01-15 21:54:12
6398386 ru120.ru 0 No Rank 2012-01-15 21:54:17
6398387 sti38.ru 0 No Rank 2012-01-15 21:54:18
6398388 gaeso.ch 0 No Rank 2012-01-15 21:54:18
6398389 16ec.com 0 No Rank 2012-01-15 21:54:21
6398390 stm62.ru 0 No Rank 2012-01-15 21:54:21
6398391 e-hrs.jp 0 No Rank 2012-01-15 21:54:21
6398392 rttlp.ru 0 No Rank 2012-01-15 21:54:23
6398393 oyundownload.org 0 2084950 2012-01-15 21:54:25
6398394 90min.ch 0 No Rank 2012-01-15 21:54:27
6398395 ad18.net 0 No Rank 2012-01-15 21:54:27
6398396 etu2.com 0 No Rank 2012-01-15 21:54:31
6398397 eqtr.net 0 No Rank 2012-01-15 21:54:32
6398398 inpro.es 0 No Rank 2012-01-15 21:54:33
6398399 chigo.jp 0 No Rank 2012-01-15 21:54:35
6398400 mvbbl.ch 0 No Rank 2012-01-15 21:54:36
6398401 ibca.biz 0 No Rank 2012-01-15 21:54:37
6398402 eqrd.net 0 No Rank 2012-01-15 21:54:37
6398403 okclients.com 0 26107313 2012-01-15 21:54:38
6398404 lburo.ru 0 No Rank 2012-01-15 21:54:39
6398405 aemsa.ch 0 No Rank 2012-01-15 21:54:42
6398406 madmaj.comperialead.pl 0 217197 2012-01-15 21:54:44
6398407 2amb.com 0 No Rank 2012-01-15 21:54:46
6398408 bmc8.com 0 No Rank 2012-01-15 21:54:47
6398409 teamz.ru 0 No Rank 2012-01-15 21:54:48
6398410 waedi.ch 0 No Rank 2012-01-15 21:54:48
6398411 2000v.ru 0 11528756 2012-01-15 21:54:53
6398412 rokam.eu 0 No Rank 2012-01-15 21:54:56
6398413 zece.org 0 No Rank 2012-01-15 21:54:56
6398414 rimi.com 0 No Rank 2012-01-15 21:54:57
6398415 fvas.net 0 6739453 2012-01-15 21:54:58
6398416 phja.com 0 23301735 2012-01-15 21:55:01
6398417 waqx.net 0 No Rank 2012-01-15 21:55:03
6398418 agmfr.ru 0 No Rank 2012-01-15 21:55:06
6398419 maps.tnhomestead.tripod.com 0 729 2012-01-15 21:55:06
6398420 ntbe.net 0 No Rank 2012-01-15 21:55:13
6398421 jukon.pl 0 No Rank 2012-01-15 21:55:16
6398422 kampl.ru 0 No Rank 2012-01-15 21:55:17
6398423 sstnv.ru 0 No Rank 2012-01-15 21:55:19
6398424 sibps.su 0 No Rank 2012-01-15 21:55:20
6398425 home.medallas.webnode.es 0 24937 2012-01-15 21:55:22
6398426 uxod.com 0 No Rank 2012-01-15 21:55:22
6398427 geiledames88621.sexdateafspraak.info 0 No Rank 2012-01-15 21:55:24
6398428 setup.ch 0 7249323 2012-01-15 21:55:24
6398429 orbar.ru 0 2588973 2012-01-15 21:55:25
6398430 pipm.com 0 No Rank 2012-01-15 21:55:27
6398431 ozsa.com 0 9997897 2012-01-15 21:55:29
6398432 j-tr.com 0 No Rank 2012-01-15 21:55:29
6398433 ec4h.com 0 No Rank 2012-01-15 21:55:30
6398434 moloto4ka.net 0 791853 2012-01-15 21:55:32
6398435 ilmusipil.com 0 344772 2012-01-15 21:55:34
6398436 edu78.ru 0 8900245 2012-01-15 21:55:34
6398437 krizz.ch 0 No Rank 2012-01-15 21:55:34
6398438 tm77.com 0 No Rank 2012-01-15 21:55:34
6398439 zem39.ru 0 No Rank 2012-01-15 21:55:37
6398440 kasha.tv 0 12909642 2012-01-15 21:55:40
6398441 j121.com 0 11872989 2012-01-15 21:55:44
6398442 aqsg.org 0 7077519 2012-01-15 21:55:45
6398443 sbats.eu 0 24423298 2012-01-15 21:55:49
6398444 capf.org 0 12070367 2012-01-15 21:55:50
6398445 wikei.ch 0 No Rank 2012-01-15 21:55:51
6398446 ii-u.net 0 No Rank 2012-01-15 21:55:53
6398447 120cn.cc 0 4149979 2012-01-15 21:55:54
6398448 uetz.net 0 No Rank 2012-01-15 21:55:56
6398449 tvva.org 0 No Rank 2012-01-15 21:55:56
6398450 edaff.pl 0 No Rank 2012-01-15 21:55:58
6398451 ds392.ru 0 No Rank 2012-01-15 21:55:59
6398452 leo9.com 0 No Rank 2012-01-15 21:55:59
6398453 scats.ru 0 No Rank 2012-01-15 21:56:02
6398454 t2ao.com 0 No Rank 2012-01-15 21:56:03
6398455 dbwf.net 0 8558522 2012-01-15 21:56:04
6398456 intex.ch 0 27164493 2012-01-15 21:56:09
6398457 i-uru.com 0 No Rank 2012-01-15 21:56:13
6398458 looga.com 0 9375004 2012-01-15 21:56:18
6398459 89900.com 0 2982318 2012-01-15 21:56:19
6398460 4guard.pl 0 No Rank 2012-01-15 21:56:21
6398461 edi.co.th 0 16277620 2012-01-15 21:56:25
6398462 hinode.cc 0 No Rank 2012-01-15 21:56:28
6398463 reice.com 0 24872623 2012-01-15 21:56:28
6398464 ausmb.com 0 No Rank 2012-01-15 21:56:28
6398465 bcstx.com 0 No Rank 2012-01-15 21:56:30
6398466 dou226.ru 0 No Rank 2012-01-15 21:56:33
6398467 ieppl.com 0 No Rank 2012-01-15 21:56:34
6398468 massel.pl 0 18767471 2012-01-15 21:56:36
6398469 kppsp.com 0 No Rank 2012-01-15 21:56:37
6398470 mskac.com 0 No Rank 2012-01-15 21:56:39
6398471 haribu.ch 0 7468013 2012-01-15 21:56:40
6398472 cpais.com 0 No Rank 2012-01-15 21:56:41
6398473 ooontd.ru 0 No Rank 2012-01-15 21:56:44
6398474 hdigit.ch 0 1683993 2012-01-15 21:56:44
6398475 gpk.ac.in 0 No Rank 2012-01-15 21:56:46
6398476 zogcza.pl 0 16130923 2012-01-15 21:56:46
6398477 rspdom.ru 0 13363930 2012-01-15 21:56:48
6398478 78fes.com 0 6515053 2012-01-15 21:56:49
6398479 ellema.ch 0 No Rank 2012-01-15 21:56:50
6398480 rlmas.com 0 No Rank 2012-01-15 21:56:52
6398481 faprel.pt 0 19261119 2012-01-15 21:56:52
6398482 bakfu.com 0 No Rank 2012-01-15 21:56:53
6398483 ezcom.org 0 No Rank 2012-01-15 21:56:54
6398484 juido.com 0 No Rank 2012-01-15 21:56:56
6398485 nyavu.com 0 No Rank 2012-01-15 21:56:57
6398486 notone.ch 0 19436633 2012-01-15 21:56:58
6398487 ds1837.ru 0 No Rank 2012-01-15 21:57:00
6398488 ds2522.ru 0 No Rank 2012-01-15 21:57:01
6398489 gou449.ru 0 11297621 2012-01-15 21:57:03
6398490 goonet.ch 0 13773627 2012-01-15 21:57:03
6398491 gccpl.com 0 7124792 2012-01-15 21:57:06
6398492 nomtfa.ca 0 No Rank 2012-01-15 21:57:07
6398493 ds1951.ru 0 No Rank 2012-01-15 21:57:08
6398494 women.tnhomestead.tripod.com 0 729 2012-01-15 21:57:11
6398495 www2.medallas.webnode.es 0 24937 2012-01-15 21:57:15
6398496 itmark.jp 0 No Rank 2012-01-15 21:57:15
6398497 hut71.com 0 No Rank 2012-01-15 21:57:15
6398498 vva-dc.ru 0 No Rank 2012-01-15 21:57:16
6398499 hajjr.com 0 No Rank 2012-01-15 21:57:20
6398500 gygax.org 0 No Rank 2012-01-15 21:57:21
6398501 bcpou.org 0 14440475 2012-01-15 21:57:21
6398502 nisea.org 0 No Rank 2012-01-15 21:57:24
6398503 a-team.ch 0 19108601 2012-01-15 21:57:25
6398504 majeko.eu 0 No Rank 2012-01-15 21:57:26
6398505 bobbox.ru 0 6533502 2012-01-15 21:57:26
6398506 web-it.jp 0 No Rank 2012-01-15 21:57:27
6398507 mpcda.com 0 No Rank 2012-01-15 21:57:29
6398508 mrays.com 0 18131470 2012-01-15 21:57:31
6398509 buonas.ch 0 No Rank 2012-01-15 21:57:31
6398510 fte.co.uk 0 No Rank 2012-01-15 21:57:33
6398511 niggli.ch 0 2568768 2012-01-15 21:57:33
6398512 graceproduction.co.id 0 No Rank 2012-01-15 21:57:35
6398513 dsc.ne.jp 0 No Rank 2012-01-15 21:57:37
6398514 816net.jp 0 No Rank 2012-01-15 21:57:40
6398515 urbanmusic.tv 0 20829378 2012-01-15 21:57:41
6398516 ucpnm.com 0 25696113 2012-01-15 21:57:41
6398517 fuctt.com 0 22149923 2012-01-15 21:57:42
6398518 aa.org.br 0 10611119 2012-01-15 21:57:44
6398519 horita.jp 0 No Rank 2012-01-15 21:57:46
6398520 csaad.com 0 No Rank 2012-01-15 21:57:47
6398521 used-hearing-aids.com 0 13729765 2012-01-15 21:57:47
6398522 diinternet.info 0 3549196 2012-01-15 21:57:49
6398523 suzus.com 0 No Rank 2012-01-15 21:57:55
6398524 t-e.co.jp 0 No Rank 2012-01-15 21:57:56
6398525 marlyn.ch 0 No Rank 2012-01-15 21:57:57
6398526 splrc.com 0 No Rank 2012-01-15 21:57:57
6398527 iskspb.ru 0 No Rank 2012-01-15 21:58:00
6398528 nahoko.jp 0 14421695 2012-01-15 21:58:01
6398529 tpwjc.com 0 14870922 2012-01-15 21:58:01
6398530 praku.com 0 1873974 2012-01-15 21:58:02
6398531 dabki3.pl 0 No Rank 2012-01-15 21:58:04
6398532 gou125.ru 0 No Rank 2012-01-15 21:58:07
6398533 house.cougarwomen.us 0 No Rank 2012-01-15 21:58:11
6398534 x-trem.ch 0 11719176 2012-01-15 21:58:14
6398535 hotice.ch 0 No Rank 2012-01-15 21:58:15
6398536 13v13.com 0 No Rank 2012-01-15 21:58:17
6398537 metin.biz 0 No Rank 2012-01-15 21:58:19
6398538 qhp.me.uk 0 16973082 2012-01-15 21:58:20
6398539 plswo.com 0 No Rank 2012-01-15 21:58:24
6398540 r-l-w.net 0 No Rank 2012-01-15 21:58:25
6398541 bovado.pl 0 18271483 2012-01-15 21:58:25
6398542 crory.biz 0 4484909 2012-01-15 21:58:27
6398543 afocal.ru 0 No Rank 2012-01-15 21:58:27
6398544 gbops.com 0 10035044 2012-01-15 21:58:32
6398545 einck.com 0 No Rank 2012-01-15 21:58:34
6398546 kora3.com 0 No Rank 2012-01-15 21:58:35
6398547 geolat.ru 0 No Rank 2012-01-15 21:58:35
6398548 how-to-earn-money-online.eoltt.com 0 356658 2012-01-15 21:58:36
6398549 q19ps.com 0 No Rank 2012-01-15 21:58:38
6398550 jb.com.np 0 No Rank 2012-01-15 21:58:41
6398551 1365car.enews.pompaglet.blog.com 0 2676977 2012-01-15 21:58:41
6398552 group.pompaglet.blog.com 0 2676977 2012-01-15 21:58:42
6398553 bandbs.ie 0 No Rank 2012-01-15 21:58:42
6398554 topics.ch 0 No Rank 2012-01-15 21:58:44
6398555 modesa.ch 0 9086118 2012-01-15 21:58:45
6398556 sphynx.ie 0 16120636 2012-01-15 21:58:47
6398557 377do.com 0 No Rank 2012-01-15 21:58:47
6398558 jhr.or.jp 0 No Rank 2012-01-15 21:58:49
6398559 dd-jp.com 0 No Rank 2012-01-15 21:58:50
6398560 masfh.com 0 20256744 2012-01-15 21:58:50
6398561 aldus.net 0 No Rank 2012-01-15 21:58:55
6398562 gccoc.org 0 No Rank 2012-01-15 21:58:57
6398563 i2icom.jp 0 No Rank 2012-01-15 21:58:57
6398564 whxyk.net 0 No Rank 2012-01-15 21:59:01
6398565 tybqg.net 0 No Rank 2012-01-15 21:59:01
6398566 n2.net.au 0 No Rank 2012-01-15 21:59:02
6398567 gsmart.in 0 No Rank 2012-01-15 21:59:02
6398568 maiers.ch 0 8769415 2012-01-15 21:59:05
6398569 biront.pl 0 No Rank 2012-01-15 21:59:17
6398570 trifs.com 0 20570208 2012-01-15 21:59:18
6398571 safna.com 0 23892863 2012-01-15 21:59:18
6398572 gnule.com 0 No Rank 2012-01-15 21:59:22
6398573 pwhat.com 0 No Rank 2012-01-15 21:59:23
6398574 iwona.com 0 10275358 2012-01-15 21:59:24
6398575 adiuc.org 0 12416908 2012-01-15 21:59:26
6398576 horva.com 0 No Rank 2012-01-15 21:59:28
6398577 nordag.ru 0 No Rank 2012-01-15 21:59:28
6398578 erebil.ru 0 No Rank 2012-01-15 21:59:30
6398579 ablage.ch 0 19131014 2012-01-15 21:59:33
6398580 naarak.jp 0 1387398 2012-01-15 21:59:35
6398581 rh.pro.br 0 No Rank 2012-01-15 21:59:38
6398582 pjddr.com 0 7116049 2012-01-15 21:59:38
6398583 styx72.ru 0 No Rank 2012-01-15 21:59:43
6398584 tanago.de 0 4600680 2012-01-15 21:59:44
6398585 oshdv.com 0 No Rank 2012-01-15 21:59:45
6398586 aedsc.com 0 No Rank 2012-01-15 21:59:46
6398587 mattfraction.com 0 6992551 2012-01-15 21:59:46
6398588 helens.ch 0 8373562 2012-01-15 21:59:49
6398589 drehy.com 0 No Rank 2012-01-15 21:59:50
6398590 gmjca.com 0 No Rank 2012-01-15 21:59:50
6398591 tiiki.net 0 No Rank 2012-01-15 21:59:50
6398592 e-ask.biz 0 No Rank 2012-01-15 21:59:53
6398593 ihstc.org 0 No Rank 2012-01-15 21:59:54
6398594 uranio.ch 0 23623361 2012-01-15 21:59:54
6398595 uvcvc.com 0 4831611 2012-01-15 21:59:57
6398596 chmk2.net 0 No Rank 2012-01-15 21:59:57
6398597 kgems.com 0 No Rank 2012-01-15 21:59:58
6398598 ingtec.ch 0 No Rank 2012-01-15 22:00:01
6398599 galapa.jp 0 No Rank 2012-01-15 22:00:03
6398600 ihb-it.de 0 No Rank 2012-01-15 22:00:04
6398601 korzap.ru 0 No Rank 2012-01-15 22:00:04
6398602 bessie.ch 0 No Rank 2012-01-15 22:00:05
6398603 sdits.org 0 19042568 2012-01-15 22:00:10
6398604 ttssl.com 0 2046533 2012-01-15 22:00:15
6398605 banglapraxis.wordpress.com 0 10870490 2012-01-15 22:00:15
6398606 orvest.ru 0 3966946 2012-01-15 22:00:17
6398607 jkd88.com 0 No Rank 2012-01-15 22:00:18
6398608 vened.org 0 1865667 2012-01-15 22:00:20
6398609 plovy.com 0 No Rank 2012-01-15 22:00:20
6398610 panles.ru 0 21405254 2012-01-15 22:00:21
6398611 sugan.net 0 4109598 2012-01-15 22:00:22
6398612 nw-drc.ru 0 No Rank 2012-01-15 22:00:23
6398613 good-c.jp 0 No Rank 2012-01-15 22:00:25
6398614 stofen.pl 0 No Rank 2012-01-15 22:00:26
6398615 valleyvintagestore.com 0 No Rank 2012-01-15 22:00:27
6398616 scptp.org 0 13744740 2012-01-15 22:00:27
6398617 neete.com 0 No Rank 2012-01-15 22:00:30
6398618 lenius.ca 0 No Rank 2012-01-15 22:00:31
6398619 oddsr.net 0 No Rank 2012-01-15 22:00:31
6398620 eitam.net 0 24078048 2012-01-15 22:00:33
6398621 rv-6a.com 0 No Rank 2012-01-15 22:00:35
6398622 fulsa.com 0 No Rank 2012-01-15 22:00:35
6398623 skygis.cn 0 1547831 2012-01-15 22:00:36
6398624 tumrmz.ru 0 18167206 2012-01-15 22:00:37
6398625 rs125.org 0 3777731 2012-01-15 22:00:38
6398626 npo-d.org 0 3326952 2012-01-15 22:00:40
6398627 mincer.pl 0 No Rank 2012-01-15 22:00:42
6398628 piatnik.pl 0 5627378 2012-01-15 22:00:42
6398629 gafsc.com 0 No Rank 2012-01-15 22:00:43
6398630 dcaward.jp 0 No Rank 2012-01-15 22:00:44
6398631 rps.adv.br 0 No Rank 2012-01-15 22:00:47
6398632 laenka.com 0 13305922 2012-01-15 22:00:47
6398633 spin11.com 0 4423601 2012-01-15 22:00:51
6398634 51jydb.com 0 No Rank 2012-01-15 22:00:53
6398635 istone.org 0 868307 2012-01-15 22:00:54
6398636 chudoos.ru 0 No Rank 2012-01-15 22:00:56
6398637 zagar48.ru 0 No Rank 2012-01-15 22:00:57
6398638 a-yara.com 0 No Rank 2012-01-15 22:00:57
6398639 eos-pm.com 0 12806271 2012-01-15 22:00:59
6398640 zdunpol.pl 0 7430969 2012-01-15 22:01:03
6398641 mokha.info 0 No Rank 2012-01-15 22:01:03
6398642 jaboun.com 0 18604704 2012-01-15 22:01:03
6398643 scwrcd.org 0 No Rank 2012-01-15 22:01:04
6398644 rossmed.ru 0 No Rank 2012-01-15 22:01:04
6398645 home.fulfillment.inube.com 0 11287 2012-01-15 22:01:07
6398646 nobiles.jp 0 7034197 2012-01-15 22:01:15
6398647 rdbull.com 0 No Rank 2012-01-15 22:01:17
6398648 mbquart.nl 0 No Rank 2012-01-15 22:01:22
6398649 tounka.com 0 No Rank 2012-01-15 22:01:23
6398650 hirachi.jp 0 No Rank 2012-01-15 22:01:26
6398651 auto30.com 0 No Rank 2012-01-15 22:01:27
6398652 tiens30.ru 0 No Rank 2012-01-15 22:01:31
6398653 vforums.us 0 3740299 2012-01-15 22:01:33
6398654 groupie.ch 0 24222707 2012-01-15 22:01:41
6398655 enh.org.au 0 No Rank 2012-01-15 22:01:44
6398656 sato-s.com 0 No Rank 2012-01-15 22:01:46
6398657 arybkin.ru 0 No Rank 2012-01-15 22:01:46
6398658 rssa.co.za 0 11671697 2012-01-15 22:01:47
6398659 vetpets.es 0 12183884 2012-01-15 22:01:48
6398660 dac-ekb.ru 0 No Rank 2012-01-15 22:01:52
6398661 sevlen.com 0 No Rank 2012-01-15 22:01:52
6398662 voodude.ch 0 10936183 2012-01-15 22:01:54
6398663 blogcarnivalsubmitterpro.com 0 No Rank 2012-01-15 22:01:55
6398664 bankposts.com 0 No Rank 2012-01-15 22:01:56
6398665 catalog.ie 0 5825200 2012-01-15 22:01:57
6398666 pokhara.pl 0 No Rank 2012-01-15 22:02:01
6398667 dilordv.ru 0 No Rank 2012-01-15 22:02:02
6398668 sdd.com.au 0 16581320 2012-01-15 22:02:06
6398669 thecafe.gg 0 No Rank 2012-01-15 22:02:07
6398670 forwib.com 0 No Rank 2012-01-15 22:02:07
6398671 emofox.com 0 No Rank 2012-01-15 22:02:13
6398672 bercork.ie 0 No Rank 2012-01-15 22:02:16
6398673 smdaydc2011.eventbrite.com 0 1220 2012-01-15 22:02:17
6398674 monayu.com 0 No Rank 2012-01-15 22:02:19
6398675 www2.fulfillment.inube.com 0 11287 2012-01-15 22:02:21
6398676 x-book.org 0 No Rank 2012-01-15 22:02:22
6398677 khoday.com 0 No Rank 2012-01-15 22:02:24
6398678 vyatdom.ru 0 No Rank 2012-01-15 22:02:24
6398679 dabush.net 0 No Rank 2012-01-15 22:02:26
6398680 giskey.com 0 10770966 2012-01-15 22:02:27
6398681 adooco.com 0 No Rank 2012-01-15 22:02:30
6398682 axener.com 0 No Rank 2012-01-15 22:02:31
6398683 juti.co.uk 0 No Rank 2012-01-15 22:02:35
6398684 mcnose.com 0 No Rank 2012-01-15 22:02:37
6398685 cicees.com 0 16202873 2012-01-15 22:02:39
6398686 algacom.ch 0 19465368 2012-01-15 22:02:41
6398687 cqtv.co.uk 0 No Rank 2012-01-15 22:02:43
6398688 jsinsa.com 0 No Rank 2012-01-15 22:02:44
6398689 antheos.ch 0 No Rank 2012-01-15 22:02:48
6398690 ssnrec.com 0 No Rank 2012-01-15 22:02:49
6398691 laptop-baratas.blogspot.com 0 12764791 2012-01-15 22:02:52
6398692 wielka4.pl 0 No Rank 2012-01-15 22:02:53
6398693 songcn.net 0 No Rank 2012-01-15 22:02:57
6398694 noelex.com 0 No Rank 2012-01-15 22:02:57
6398695 ragner.org 0 No Rank 2012-01-15 22:03:00
6398696 knozee.com 0 No Rank 2012-01-15 22:03:06
6398697 hetzlig.ch 0 No Rank 2012-01-15 22:03:07
6398698 vladmi.com 0 9777471 2012-01-15 22:03:08
6398699 rl3.com.br 0 No Rank 2012-01-15 22:03:14
6398700 sakula.biz 0 No Rank 2012-01-15 22:03:15
6398701 wow.cougarwomen.us 0 No Rank 2012-01-15 22:03:16
6398702 gou1410.ru 0 11528959 2012-01-15 22:03:18
6398703 netflex.co 0 21709279 2012-01-15 22:03:22
6398704 zsp4bel.pl 0 18647931 2012-01-15 22:03:22
6398705 fps-uk.net 0 No Rank 2012-01-15 22:03:25
6398706 pbts.co.uk 0 10587867 2012-01-15 22:03:27
6398707 vividia.jp 0 No Rank 2012-01-15 22:03:31
6398708 stately.ru 0 No Rank 2012-01-15 22:03:35
6398709 mobycc.com 0 No Rank 2012-01-15 22:03:36
6398710 dshi-11.ru 0 No Rank 2012-01-15 22:03:39
6398711 debt24.com 0 8520977 2012-01-15 22:03:44
6398712 exm.com.au 0 No Rank 2012-01-15 22:03:48
6398713 asuret.com 0 7816769 2012-01-15 22:03:48
6398714 emuera.com 0 6110724 2012-01-15 22:03:57
6398715 mim2010.ru 0 No Rank 2012-01-15 22:03:58
6398716 epde.co.uk 0 No Rank 2012-01-15 22:04:00
6398717 fronoh.com 0 22149858 2012-01-15 22:04:01
6398718 etahoe.com 0 21984777 2012-01-15 22:04:03
6398719 hostnz.biz 0 No Rank 2012-01-15 22:04:05
6398720 jrhome.org 0 No Rank 2012-01-15 22:04:06
6398721 rphlstrcchs.co.cc 0 No Rank 2012-01-15 22:04:12
6398722 wpfree.com 0 10994685 2012-01-15 22:04:14
6398723 goksir.com 0 No Rank 2012-01-15 22:04:16
6398724 akunad.com 0 No Rank 2012-01-15 22:04:16
6398725 medulla.jp 0 No Rank 2012-01-15 22:04:20
6398726 sizers.org 0 9667981 2012-01-15 22:04:21
6398727 lejeune.de 0 2573874 2012-01-15 22:04:24
6398728 bip.o12.pl 0 112240 2012-01-15 22:04:28
6398729 dh-news.cn 0 605685 2012-01-15 22:04:28
6398730 paraiba.ch 0 No Rank 2012-01-15 22:04:29
6398731 mdnair.com 0 No Rank 2012-01-15 22:04:33
6398732 uhcwasa.ch 0 No Rank 2012-01-15 22:04:33
6398733 monobar.pl 0 2809224 2012-01-15 22:04:33
6398734 lfy.org.au 0 No Rank 2012-01-15 22:04:38
6398735 caa.com.np 0 14098970 2012-01-15 22:04:39
6398736 spb-sec.ru 0 No Rank 2012-01-15 22:04:39
6398737 oskmila.eu 0 No Rank 2012-01-15 22:04:43
6398738 nvcc.co.uk 0 No Rank 2012-01-15 22:04:47
6398739 koorse.com 0 No Rank 2012-01-15 22:04:47
6398740 jadda.info 0 2278835 2012-01-15 22:04:50
6398741 raf.com.pl 0 8326639 2012-01-15 22:04:52
6398742 ainoow.com 0 26572781 2012-01-15 22:04:53
6398743 suiboku.jp 0 No Rank 2012-01-15 22:04:56
6398744 v-teple.ru 0 1436434 2012-01-15 22:04:59
6398745 viptyre.ru 0 2987484 2012-01-15 22:05:02
6398746 ftg.org.uk 0 11610904 2012-01-15 22:05:03
6398747 gou2082.ru 0 13405804 2012-01-15 22:05:06
6398748 carvone.ru 0 No Rank 2012-01-15 22:05:15
6398749 lettour.ru 0 6859178 2012-01-15 22:05:17
6398750 workbox.es 0 No Rank 2012-01-15 22:05:21
6398751 mhooga.org 0 No Rank 2012-01-15 22:05:24
6398752 huisou.com 0 7106 2012-01-15 22:05:24
6398753 seding.net 0 No Rank 2012-01-15 22:05:25
6398754 hwentx.com 0 2544044 2012-01-15 22:05:26
6398755 bienaia.es 0 15898451 2012-01-15 22:05:29
6398756 calliso.ma 0 No Rank 2012-01-15 22:05:29
6398757 saso.co.za 0 12464151 2012-01-15 22:05:32
6398758 sye.com.es 0 No Rank 2012-01-15 22:05:34
6398759 gaucha.com 0 15603919 2012-01-15 22:05:36
6398760 campufa.ru 0 No Rank 2012-01-15 22:05:38
6398761 i3e.com.ar 0 No Rank 2012-01-15 22:05:39
6398762 adebar.com 0 No Rank 2012-01-15 22:05:40
6398763 wcfinc.com 0 15616775 2012-01-15 22:05:43
6398764 esibiza.es 0 No Rank 2012-01-15 22:05:45
6398765 telcona.ch 0 9858601 2012-01-15 22:05:48
6398766 crurin.com 0 No Rank 2012-01-15 22:05:50
6398767 smonkey.jp 0 No Rank 2012-01-15 22:05:52
6398768 ap-its.com 0 8209242 2012-01-15 22:05:53
6398769 patnis.com 0 No Rank 2012-01-15 22:05:54
6398770 ktrc.co.uk 0 No Rank 2012-01-15 22:05:55
6398771 karosaz.pl 0 4142597 2012-01-15 22:05:57
6398772 redstar.ch 0 6798330 2012-01-15 22:05:59
6398773 wly.com.br 0 No Rank 2012-01-15 22:05:59
6398774 npo-aca.jp 0 No Rank 2012-01-15 22:06:01
6398775 usbgps.org 0 No Rank 2012-01-15 22:06:03
6398776 searsr.com 0 23113493 2012-01-15 22:06:04
6398777 enta-c.com 0 No Rank 2012-01-15 22:06:06
6398778 abacaf.com 0 No Rank 2012-01-15 22:06:06
6398779 ct-cap.com 0 No Rank 2012-01-15 22:06:12
6398780 smapix.com 0 No Rank 2012-01-15 22:06:15
6398781 izumir.com 0 No Rank 2012-01-15 22:06:15
6398782 zdesign.ie 0 No Rank 2012-01-15 22:06:20
6398783 maihao123.com 0 No Rank 2012-01-15 22:06:21
6398784 dou2266.ru 0 No Rank 2012-01-15 22:06:23
6398785 mterui.com 0 No Rank 2012-01-15 22:06:24
6398786 a-team.biz 0 No Rank 2012-01-15 22:06:24
6398787 wcmath.com 0 No Rank 2012-01-15 22:06:24
6398788 stravis.pl 0 No Rank 2012-01-15 22:06:24
6398789 cti.org.pl 0 4376142 2012-01-15 22:06:28
6398790 pjwart.com 0 No Rank 2012-01-15 22:06:30
6398791 dahaca.com 0 21558821 2012-01-15 22:06:31
6398792 hocp.co.uk 0 No Rank 2012-01-15 22:06:32
6398793 medecin.ma 0 No Rank 2012-01-15 22:06:32
6398794 beay.co.uk 0 24729382 2012-01-15 22:06:36
6398795 adddme.com 0 No Rank 2012-01-15 22:06:36
6398796 corinz.com 0 No Rank 2012-01-15 22:06:38
6398797 pokhara.ws 0 20120036 2012-01-15 22:06:39
6398798 volvap.com 0 No Rank 2012-01-15 22:06:40
6398799 allmassageoils.com 0 No Rank 2012-01-15 22:06:42
6398800 gredan2.pl 0 No Rank 2012-01-15 22:06:44
6398801 twomaisons.com 0 No Rank 2012-01-15 22:07:01
6398802 romulusrumson.com 0 3278066 2012-01-15 22:07:10
6398803 vandrogen.nl 0 No Rank 2012-01-15 22:07:27
6398804 vanhoosecounselors.com 0 No Rank 2012-01-15 22:07:55
6398805 vanilabiz.com 0 No Rank 2012-01-15 22:08:00
6398806 gdr-candra.blogspot.com 0 26248897 2012-01-15 22:08:01
6398807 likedandeliondust-download.tk 0 No Rank 2012-01-15 22:08:25
6398808 melhoresperfumesmasculinos.com 0 2930382 2012-01-15 22:08:26
6398809 intelligentsecuritysystems.net 0 No Rank 2012-01-15 22:08:29
6398810 churchleadershipsymposiums.com 0 No Rank 2012-01-15 22:08:29
6398811 topbangkokbars.com 0 1387900 2012-01-15 22:08:32
6398812 homeownerinsurancequotetexas.com 0 5133354 2012-01-15 22:08:32
6398813 mathcoursesonline.onlineschools.name 0 4001231 2012-01-15 22:08:35
6398814 montesanesinforum.globalfreeforum.com 0 256594 2012-01-15 22:08:36
6398815 las-musas-residence.hostelsmadrid.net 0 No Rank 2012-01-15 22:08:38
6398816 serviziosocialege.globalfreeforum.com 0 256594 2012-01-15 22:08:39
6398817 rwf.su 0 No Rank 2012-01-15 22:08:44
6398818 pst.jp 0 2197871 2012-01-15 22:08:44
6398819 q19.net 0 No Rank 2012-01-15 22:08:45
6398820 r22-5.ru 0 No Rank 2012-01-15 22:08:48
6398821 rimpe.ru 0 No Rank 2012-01-15 22:08:48
6398822 swiss.ca 0 16885084 2012-01-15 22:08:48
6398823 agenergia.org 0 6836905 2012-01-15 22:08:50
6398824 eurom.org 0 No Rank 2012-01-15 22:08:53
6398825 smsim.net 0 No Rank 2012-01-15 22:08:55
6398826 bfbag.com 0 No Rank 2012-01-15 22:08:55
6398827 oslhp.net 0 5127556 2012-01-15 22:09:00
6398828 redfox.ma 0 9972725 2012-01-15 22:09:01
6398829 id2.cougarwomen.us 0 No Rank 2012-01-15 22:09:03
6398830 lorres.ru 0 No Rank 2012-01-15 22:09:04
6398831 5dollarforfree.blogspot.com 0 No Rank 2012-01-15 22:09:05
6398832 tmk35.com 0 No Rank 2012-01-15 22:09:09
6398833 pimux.com 0 No Rank 2012-01-15 22:09:14
6398834 kjc.co.jp 0 4014673 2012-01-15 22:09:16
6398835 elixus.de 0 21212561 2012-01-15 22:09:16
6398836 ofijo.com 0 No Rank 2012-01-15 22:09:18
6398837 siegmc.com 0 No Rank 2012-01-15 22:09:21
6398838 bysnow.com 0 No Rank 2012-01-15 22:09:21
6398839 knitkit.jp 0 No Rank 2012-01-15 22:09:24
6398840 foitel.com 0 No Rank 2012-01-15 22:09:29
6398841 voheen.com 0 19893901 2012-01-15 22:09:30
6398842 esmeray.ch 0 No Rank 2012-01-15 22:09:32
6398843 miv.com.ar 0 No Rank 2012-01-15 22:09:34
6398844 camplus.ru 0 1259360 2012-01-15 22:09:41
6398845 fintov.com 0 11440701 2012-01-15 22:09:42
6398846 tangovl.ru 0 No Rank 2012-01-15 22:09:43
6398847 nacomm.com 0 No Rank 2012-01-15 22:09:46
6398848 maltima.ru 0 2479813 2012-01-15 22:09:53
6398849 yestyle.ru 0 No Rank 2012-01-15 22:09:53
6398850 sp-oktb.ru 0 9021261 2012-01-15 22:09:53
6398851 mentors.ie 0 712139 2012-01-15 22:09:56
6398852 daarija.ru 0 4912139 2012-01-15 22:09:58
6398853 spbfarr.ru 0 No Rank 2012-01-15 22:09:59
6398854 wel-kom.ru 0 No Rank 2012-01-15 22:10:01
6398855 ucpltd.com 0 No Rank 2012-01-15 22:10:02
6398856 ryzhevo.ru 0 No Rank 2012-01-15 22:10:05
6398857 bloquv.com 0 9542606 2012-01-15 22:10:05
6398858 cabom.se 0 827770 2012-01-15 22:10:15
6398859 ren-art.ru 0 11324402 2012-01-15 22:10:17
6398860 astremo.ru 0 649889 2012-01-15 22:10:18
6398861 arcmoto.ru 0 7943596 2012-01-15 22:10:20
6398862 cardvrs.ru 0 No Rank 2012-01-15 22:10:22
6398863 nhafala.ch 0 No Rank 2012-01-15 22:10:25
6398864 nplpet.com 0 No Rank 2012-01-15 22:10:28
6398865 jadfun.com 0 No Rank 2012-01-15 22:10:28
6398866 icad.co.in 0 No Rank 2012-01-15 22:10:29
6398867 abc.com.tr 0 No Rank 2012-01-15 22:10:34
6398868 vpwood.com 0 10163858 2012-01-15 22:10:34
6398869 unikay.com 0 No Rank 2012-01-15 22:10:36
6398870 sanole.com 0 No Rank 2012-01-15 22:10:38
6398871 room-a.net 0 No Rank 2012-01-15 22:10:40
6398872 kctkcp.com 0 No Rank 2012-01-15 22:10:41
6398873 dhia.co.jp 0 No Rank 2012-01-15 22:10:44
6398874 aacash.com 0 22436826 2012-01-15 22:10:45
6398875 naboba.com 0 No Rank 2012-01-15 22:10:45
6398876 ozdeva.com 0 27634129 2012-01-15 22:10:48
6398877 klcakes.ie 0 13036479 2012-01-15 22:10:52
6398878 9437684.ru 0 No Rank 2012-01-15 22:10:54
6398879 tosback.ie 0 No Rank 2012-01-15 22:10:54
6398880 lesoto.com 0 No Rank 2012-01-15 22:10:56
6398881 lslins.com 0 No Rank 2012-01-15 22:10:58
6398882 aykmed.org 0 No Rank 2012-01-15 22:11:03
6398883 nociam.com 0 No Rank 2012-01-15 22:11:03
6398884 pfeiss.com 0 9743072 2012-01-15 22:11:07
6398885 crodog.org 0 2968742 2012-01-15 22:11:07
6398886 proman.net 0 No Rank 2012-01-15 22:11:12
6398887 hpwyss.com 0 No Rank 2012-01-15 22:11:14
6398888 jjr.com.br 0 No Rank 2012-01-15 22:11:17
6398889 carpin.org 0 22953456 2012-01-15 22:11:19
6398890 kon9na.com 0 No Rank 2012-01-15 22:11:19
6398891 slh.nhs.uk 0 1928960 2012-01-15 22:11:22
6398892 webran.net 0 No Rank 2012-01-15 22:11:25
6398893 sonjana.ch 0 No Rank 2012-01-15 22:11:27
6398894 blodite.ru 0 No Rank 2012-01-15 22:11:30
6398895 truly5.com 0 No Rank 2012-01-15 22:11:31
6398896 comsy-t.ru 0 No Rank 2012-01-15 22:11:32
6398897 atollst.ru 0 No Rank 2012-01-15 22:11:36
6398898 poohco.com 0 No Rank 2012-01-15 22:11:37
6398899 sunsetie.com 0 No Rank 2012-01-15 22:11:38
6398900 edofcc.com 0 No Rank 2012-01-15 22:11:38
6398901 dvd-car.ru 0 No Rank 2012-01-15 22:11:40
6398902 proplay.jp 0 No Rank 2012-01-15 22:11:42
6398903 max.pompaglet.blog.com 0 2676977 2012-01-15 22:11:43
6398904 k-nk.or.jp 0 No Rank 2012-01-15 22:11:43
6398905 ips-nz.com 0 No Rank 2012-01-15 22:11:47
6398906 acsb5g.com 0 No Rank 2012-01-15 22:11:47
6398907 yedn.co.uk 0 No Rank 2012-01-15 22:11:48
6398908 3log.com 0 8861760 2012-01-15 22:11:49
6398909 escuin.com 0 No Rank 2012-01-15 22:11:51
6398910 ps-unit.ru 0 No Rank 2012-01-15 22:11:51
6398911 nats-ds.jp 0 No Rank 2012-01-15 22:11:52
6398912 carboxy.ru 0 No Rank 2012-01-15 22:11:54
6398913 nicksy.com 0 13289818 2012-01-15 22:11:55
6398914 love-gu.ru 0 10291670 2012-01-15 22:11:57
6398915 cd4car.com 0 2250134 2012-01-15 22:11:57
6398916 kavdoor.ru 0 No Rank 2012-01-15 22:11:58
6398917 mkveles.ru 0 No Rank 2012-01-15 22:12:00
6398918 keyffm.com 0 No Rank 2012-01-15 22:12:02
6398919 compkor.ru 0 6351393 2012-01-15 22:12:03
6398920 doggox.com 0 No Rank 2012-01-15 22:12:05
6398921 vg-club.ch 0 No Rank 2012-01-15 22:12:06
6398922 csssuxxx.com 0 2371932 2012-01-15 22:12:08
6398923 dxbweb.com 0 3022286 2012-01-15 22:12:08
6398924 pusatreseller.com 0 No Rank 2012-01-15 22:12:09
6398925 p-mame.com 0 No Rank 2012-01-15 22:12:14
6398926 agreme.com 0 No Rank 2012-01-15 22:12:16
6398927 atagame.net 0 1797917 2012-01-15 22:12:18
6398928 nbitcc.com 0 No Rank 2012-01-15 22:12:18
6398929 dso4x4.com 0 15767670 2012-01-15 22:12:20
6398930 peatur.com 0 No Rank 2012-01-15 22:12:25
6398931 vgupta.com 0 17883766 2012-01-15 22:12:27
6398932 drvida.com 0 No Rank 2012-01-15 22:12:27
6398933 haseki.com 0 27714638 2012-01-15 22:12:27
6398934 lottos.com 0 No Rank 2012-01-15 22:12:31
6398935 dls-lc.com 0 No Rank 2012-01-15 22:12:32
6398936 itsthe1.tv 0 No Rank 2012-01-15 22:12:34
6398937 lgs.com.br 0 No Rank 2012-01-15 22:12:36
6398938 twf.com.br 0 No Rank 2012-01-15 22:12:37
6398939 inodex.com 0 No Rank 2012-01-15 22:12:38
6398940 gzcwbb.com 0 10157085 2012-01-15 22:12:41
6398941 stv.com.br 0 10258508 2012-01-15 22:12:44
6398942 7gates.org 0 No Rank 2012-01-15 22:12:45
6398943 as-kur.com 0 27348158 2012-01-15 22:12:45
6398944 etsell.com 0 13550072 2012-01-15 22:12:49
6398945 inpama.com 0 819652 2012-01-15 22:12:50
6398946 aja.org.ar 0 No Rank 2012-01-15 22:12:51
6398947 boostit.ch 0 No Rank 2012-01-15 22:12:54
6398948 spaeni.com 0 No Rank 2012-01-15 22:12:54
6398949 yiltok.net 0 No Rank 2012-01-15 22:12:56
6398950 abxguy.com 0 20735194 2012-01-15 22:13:01
6398951 dablio.net 0 No Rank 2012-01-15 22:13:02
6398952 alu.com.br 0 No Rank 2012-01-15 22:13:02
6398953 reduxin.ru 0 1245530 2012-01-15 22:13:04
6398954 rasierapparatde.info 0 19354472 2012-01-15 22:13:13
6398955 retreag.ch 0 No Rank 2012-01-15 22:13:15
6398956 mez.com.tr 0 4634920 2012-01-15 22:13:17
6398957 sntalk.com 0 4251467 2012-01-15 22:13:19
6398958 broad-i.jp 0 No Rank 2012-01-15 22:13:19
6398959 chitose.jp 0 3273965 2012-01-15 22:13:23
6398960 urcinc.com 0 19824263 2012-01-15 22:13:28
6398961 next-jp.jp 0 No Rank 2012-01-15 22:13:32
6398962 metshq.com 0 15406742 2012-01-15 22:13:35
6398963 dayli.info 0 No Rank 2012-01-15 22:13:36
6398964 meejai.com 0 707311 2012-01-15 22:13:38
6398965 databel.pl 0 No Rank 2012-01-15 22:13:39
6398966 indexed.pompaglet.blog.com 0 2676977 2012-01-15 22:13:40
6398967 jfsiga.com 0 No Rank 2012-01-15 22:13:42
6398968 cafune.com 0 10595734 2012-01-15 22:13:43
6398969 zes.com.br 0 12819399 2012-01-15 22:13:44
6398970 zlu.com.br 0 No Rank 2012-01-15 22:13:47
6398971 eneftec.ru 0 No Rank 2012-01-15 22:13:47
6398972 asmolu.com 0 15631837 2012-01-15 22:13:49
6398973 mrvc.canadainsuranceplan.ca 0 4042645 2012-01-15 22:13:50
6398974 klubygp.pl 0 1642787 2012-01-15 22:13:50
6398975 sarara.org 0 1822528 2012-01-15 22:13:56
6398976 maifin.com 0 No Rank 2012-01-15 22:13:59
6398977 beart.info 0 No Rank 2012-01-15 22:14:01
6398978 women.canadainsuranceplan.ca 0 4042645 2012-01-15 22:14:02
6398979 let-me.com 0 10687807 2012-01-15 22:14:05
6398980 deliver.ch 0 No Rank 2012-01-15 22:14:06
6398981 u.tnhomestead.tripod.com 0 729 2012-01-15 22:14:07
6398982 rossier.cc 0 No Rank 2012-01-15 22:14:08
6398983 tnm.com.my 0 No Rank 2012-01-15 22:14:13
6398984 eremos.org 0 No Rank 2012-01-15 22:14:14
6398985 mariola.pl 0 14387020 2012-01-15 22:14:16
6398986 maugan.net 0 No Rank 2012-01-15 22:14:18
6398987 mkemre.com 0 No Rank 2012-01-15 22:14:22
6398988 milight.ch 0 No Rank 2012-01-15 22:14:25
6398989 in-mind.eu 0 2651907 2012-01-15 22:14:27
6398990 l2steel.ru 0 5148410 2012-01-15 22:14:29
6398991 abba12.com 0 No Rank 2012-01-15 22:14:31
6398992 mearah.com 0 No Rank 2012-01-15 22:14:31
6398993 thavady.com 0 13765908 2012-01-15 22:14:33
6398994 cafezoom.ru 0 4021396 2012-01-15 22:14:37
6398995 ncit-pk.com 0 No Rank 2012-01-15 22:14:40
6398996 ebcoinc.net 0 No Rank 2012-01-15 22:14:40
6398997 mairtin.com 0 No Rank 2012-01-15 22:14:43
6398998 alascam.net 0 No Rank 2012-01-15 22:14:43
6398999 normans.com 0 4845222 2012-01-15 22:14:45